Location: Greenwich
(51.4790°N, 0.0090°E)
Time: 06:01:37
(UTC+01:00)

Tiros 1 - Pass Details

Date: 25 April 2024
Orbit: 624 x 657 km, 48.4° (Epoch: 25 May)

Event Time Altitude Azimuth Distance (km) Brightness Sun altitude
Exits shadow 03:11:15 42° 236° (SW) 906 7.4 -19.0°
Maximum altitude 03:12:19 51° 193° (SSW) 789 7.2 -18.9°
Drops below altitude 10° 03:16:46 10° 118° (ESE) 1,995 9.8 -18.5°
Sets 03:19:07 0° 113° (ESE) 2,899 10.7 -18.3°
